Погода в Уруапане

Мексика     19°25′10″N   102°03′03″W
темп.,
°C
ветер,
м/с
пор.,
м/с
влажн.,
%
обл.,
%
осадки,
мм/ч
давл.,
гПа
погр.,
м
16 апреля, пт
пт1601:00+15ссз113523 0.0 101613
04:00+13ссз22404 0.0 101523
07:00+13ссз32380 0.0 101627
10:00+23ю11200 0.0 1014862
13:00+26ю42172 0.0 10122288
16:00+26ю54193 0.0 10091939
19:00+23ю34204 0.0 10101444
22:00+15ссз22374 0.0 101419
17 апреля, сб
сб1701:00+14ссз214247 0.0 101515
04:00+13ссз224810 0.0 101417
07:00+12с22494 0.0 101417
10:00+21ююв22270 0.0 1014765
13:00+25ю45200 0.0 10121664
16:00+25ю55180 0.0 10101896
19:00+22ю442467 0.0 10111412
22:00+13ссз21570 0.0 101515
18 апреля, вс
вс1801:00+12ссз21610 0.0 101615
04:00+11с22640 0.0 101517
07:00+10с22610 0.0 101617
10:00+20ююв22300 0.0 1014755
13:00+24ююв44200 0.0 10121689
16:00+25ю44170 0.0 10101825
19:00+22ю34170 0.0 10101271
22:00+12с22310 0.0 101617
19 апреля, пн
пн1901:00+11с223559 0.0 101718
04:00+10ссз223594 0.0 101619
07:00+9с22315 0.0 101618
10:00+19ююв2218100 0.0 1015666
13:00+23ю44134 0.0 10131645
16:00+24ю4511100 0.0 10111946
19:00+20ю341427 0.0 10121105
22:00+11с213048 0.0 101716
20 апреля, вт
вт2001:00+11с2135100 0.0 101818
04:00+11с2229100 0.0 101621
07:00+12с2123100 0.0 101620
10:00+19ююв221884 0.0 1015643
13:00+24ю43105 0.0 10141718
16:00+25ю4384 0.0 10111831
19:00+22ю34101 0.0 10121161
22:00+13с22170 0.0 101718